Location: Unspecified
(0.0000°N, 0.0000°E)
Time: 17:36:43
(UTC+00:00)

Tiangong - Pass Details

Date: 11 January 2026
Orbit: 378 x 394 km, 41.5° (Epoch: 16 January)

Event Time Altitude Azimuth Distance (km) Brightness Sun altitude
Rises 18:35:25 0° 279° (W) 2,250 2.9 -6.4°
Reaches altitude 10° 18:38:46 10° 240° (WSW) 1,395 2.4 -7.1°
Maximum altitude 18:39:43 11° 223° (SW) 1,337 1.8 -7.3°
Drops below altitude 10° 18:40:39 10° 205° (SSW) 1,394 1.4 -7.6°
Sets 18:44:00 0° 167° (SSE) 2,244 1.9 -8.3°
